sat.trackr.live / text

‹ back to catalog

STARLINK-11470 [DTC]

NORAD 62062 · 2024-217F

PAYLOAD ACTIVE UNKNOWN

§ Identity

Operator
Country
US
Launch date
2024-11-24
Launch site
AFWTR
Launch vehicle
Mass (kg)
RCS (m²)

Purposes: comms

External: N2YO · Heavens-Above · Gunter

§ Orbital elements

Epoch: 2026-05-25T03:48:53.185824Z

Period
91.73 min
Inclination
53.1571°
Eccentricity
0.0001014
Mean motion
15.69768664 rev/d
Perigee alt
358.9 km
Apogee alt
360.2 km
Semi-major
6,737.7 km
B*
1.4453e-3
RAAN
54.3071°
Arg perigee
83.7108°
Mean anomaly
276.4026°
Rev number
8,712

§ Raw data

STARLINK-11470 [DTC]1 62062U 24217F   26145.15894891  .00178765  00000+0  14453-2 0  99972 62062  53.1571  54.3071 0001014  83.7108 276.4026 15.69768664 87126

JSON: /api/v1/satellites/62062 · /tle

For live sub-satellite position, see the globe view (requires WebGL).

§ Visibility from observer

Set your observer location to see the next 7 days of passes ≥ 10°. The values pass through the URL so the page stays shareable.

No JS? Fill the form by hand. The geolocation button needs JavaScript.